Time,TemperatureF,DewpointF,PressureIn,WindDirection,WindDirectionDegrees,WindSpeedMPH,WindSpeedGustMPH,Humidity,HourlyPrecipIn,Conditions,Clouds,dailyrainin,SoftwareType,DateUTC
2013-02-06 00:01:00,6.0,2.0,-100.00,SSE,148,6.0,-999.0,85,-99.99,,,-99.99,,2013-02-06 06:01:00,
2013-02-06 00:11:00,6.0,2.0,-100.00,SSE,160,9.0,-999.0,86,-99.99,,,-99.99,,2013-02-06 06:11:00,
2013-02-06 00:21:00,5.0,2.0,-100.00,SE,143,7.0,-999.0,86,-99.99,,,-99.99,,2013-02-06 06:21:00,
2013-02-06 00:32:00,4.0,1.0,-100.00,SE,145,7.0,-999.0,87,-99.99,,,-99.99,,2013-02-06 06:32:00,
2013-02-06 00:42:00,4.0,1.0,-100.00,SE,145,7.0,-999.0,87,-99.99,,,-99.99,,2013-02-06 06:42:00,
2013-02-06 00:51:00,4.0,1.0,-100.00,SE,145,10.0,-999.0,87,-99.99,,,-99.99,,2013-02-06 06:51:00,
2013-02-06 01:01:00,4.0,1.0,-100.00,SE,133,7.0,-999.0,88,-99.99,,,-99.99,,2013-02-06 07:01:00,
2013-02-06 01:11:00,4.0,1.0,-100.00,SE,145,8.0,-999.0,88,-99.99,,,-99.99,,2013-02-06 07:11:00,
2013-02-06 01:22:00,4.0,1.0,-100.00,SE,139,8.0,-999.0,88,-99.99,,,-99.99,,2013-02-06 07:22:00,
2013-02-06 01:32:00,3.0,1.0,-100.00,SE,132,9.0,-999.0,88,-99.99,,,-99.99,,2013-02-06 07:32:00,
2013-02-06 01:42:00,4.0,1.0,-100.00,SE,138,10.0,-999.0,88,-99.99,,,-99.99,,2013-02-06 07:42:00,
2013-02-06 01:51:00,4.0,1.0,-100.00,SE,139,10.0,-999.0,88,-99.99,,,-99.99,,2013-02-06 07:51:00,
2013-02-06 02:01:00,4.0,1.0,-100.00,SE,145,8.0,-999.0,87,-99.99,,,-99.99,,2013-02-06 08:01:00,
2013-02-06 02:11:00,3.0,1.0,-100.00,SSE,151,12.0,-999.0,88,-99.99,,,-99.99,,2013-02-06 08:11:00,
2013-02-06 02:21:00,4.0,1.0,-100.00,SSE,150,9.0,-999.0,88,-99.99,,,-99.99,,2013-02-06 08:21:00,
2013-02-06 02:31:00,4.0,2.0,-100.00,SSE,157,11.0,-999.0,88,-99.99,,,-99.99,,2013-02-06 08:31:00,
2013-02-06 02:42:00,5.0,2.0,-100.00,SSE,147,9.0,-999.0,88,-99.99,,,-99.99,,2013-02-06 08:42:00,
2013-02-06 02:53:00,6.0,3.0,-100.00,SE,145,10.0,-999.0,88,-99.99,,,-99.99,,2013-02-06 08:53:00,
2013-02-06 03:01:00,6.0,3.0,-100.00,SSE,160,10.0,-999.0,88,-99.99,,,-99.99,,2013-02-06 09:01:00,
2013-02-06 03:11:00,7.0,4.0,-100.00,South,170,17.0,-999.0,88,-99.99,,,-99.99,,2013-02-06 09:11:00,
2013-02-06 03:21:00,8.0,4.0,-100.00,SSE,167,14.0,-999.0,87,-99.99,,,-99.99,,2013-02-06 09:21:00,
2013-02-06 03:32:00,9.0,6.0,-100.00,South,174,14.0,-999.0,87,-99.99,,,-99.99,,2013-02-06 09:32:00,
2013-02-06 03:41:00,10.0,7.0,-100.00,South,178,10.0,-999.0,87,-99.99,,,-99.99,,2013-02-06 09:41:00,
2013-02-06 03:51:00,11.0,7.0,-100.00,South,174,10.0,-999.0,86,-99.99,,,-99.99,,2013-02-06 09:51:00,
2013-02-06 04:01:00,11.0,8.0,-100.00,SSE,149,9.0,-999.0,86,-99.99,,,-99.99,,2013-02-06 10:01:00,
2013-02-06 04:11:00,12.0,8.0,-100.00,SE,130,8.0,-999.0,86,-99.99,,,-99.99,,2013-02-06 10:11:00,
2013-02-06 04:21:00,12.0,8.0,-100.00,SE,124,7.0,-999.0,86,-99.99,,,-99.99,,2013-02-06 10:21:00,
2013-02-06 04:31:00,11.0,8.0,-100.00,SE,131,9.0,-999.0,86,-99.99,,,-99.99,,2013-02-06 10:31:00,
2013-02-06 04:42:00,12.0,8.0,-100.00,SE,139,10.0,-999.0,86,-99.99,,,-99.99,,2013-02-06 10:42:00,
2013-02-06 04:51:00,12.0,8.0,-100.00,SE,140,11.0,-999.0,86,-99.99,,,-99.99,,2013-02-06 10:51:00,
2013-02-06 05:01:00,12.0,8.0,-100.00,SSE,153,14.0,-999.0,86,-99.99,,,-99.99,,2013-02-06 11:01:00,
2013-02-06 05:11:00,12.0,9.0,-100.00,SSE,150,11.0,-999.0,87,-99.99,,,-99.99,,2013-02-06 11:11:00,
2013-02-06 05:22:00,12.0,9.0,-100.00,SE,138,11.0,-999.0,86,-99.99,,,-99.99,,2013-02-06 11:22:00,
2013-02-06 05:32:00,12.0,9.0,-100.00,SE,137,11.0,-999.0,85,-99.99,,,-99.99,,2013-02-06 11:32:00,
2013-02-06 05:42:00,13.0,9.0,-100.00,SE,125,9.0,-999.0,86,-99.99,,,-99.99,,2013-02-06 11:42:00,
2013-02-06 05:52:00,13.0,9.0,-100.00,ESE,122,10.0,-999.0,85,-99.99,,,-99.99,,2013-02-06 11:52:00,
2013-02-06 06:02:00,13.0,9.0,-100.00,ESE,110,10.0,-999.0,84,-99.99,,,-99.99,,2013-02-06 12:02:00,
2013-02-06 06:12:00,13.0,9.0,-100.00,ESE,121,10.0,-999.0,84,-99.99,,,-99.99,,2013-02-06 12:12:00,
2013-02-06 06:22:00,13.0,9.0,-100.00,ESE,114,12.0,-999.0,84,-99.99,,,-99.99,,2013-02-06 12:22:00,
2013-02-06 06:32:00,13.0,9.0,-100.00,ESE,106,11.0,-999.0,84,-99.99,,,-99.99,,2013-02-06 12:32:00,
2013-02-06 06:42:00,13.0,9.0,-100.00,ESE,118,9.0,-999.0,84,-99.99,,,-99.99,,2013-02-06 12:42:00,
2013-02-06 06:52:00,12.0,8.0,-100.00,ESE,106,10.0,-999.0,84,-99.99,,,-99.99,,2013-02-06 12:52:00,
2013-02-06 07:01:00,13.0,9.0,-100.00,ESE,103,9.0,-999.0,84,-99.99,,,-99.99,,2013-02-06 13:01:00,
2013-02-06 07:12:00,12.0,8.0,-100.00,ESE,115,8.0,-999.0,84,-99.99,,,-99.99,,2013-02-06 13:12:00,
2013-02-06 07:22:00,12.0,8.0,-100.00,ESE,115,8.0,-999.0,84,-99.99,,,-99.99,,2013-02-06 13:22:00,
2013-02-06 07:32:00,13.0,10.0,-100.00,ESE,117,15.0,-999.0,86,-99.99,,,-99.99,,2013-02-06 13:32:00,
2013-02-06 07:42:00,13.0,10.0,-100.00,ESE,117,15.0,-999.0,86,-99.99,,,-99.99,,2013-02-06 13:42:00,
2013-02-06 07:52:00,14.0,10.0,-100.00,ESE,116,17.0,-999.0,86,-99.99,,,-99.99,,2013-02-06 13:52:00,
2013-02-06 08:02:00,14.0,11.0,-100.00,ESE,116,13.0,-999.0,86,-99.99,,,-99.99,,2013-02-06 14:02:00,
2013-02-06 08:11:00,14.0,11.0,-100.00,ESE,113,12.0,-999.0,86,-99.99,,,-99.99,,2013-02-06 14:11:00,
2013-02-06 08:22:00,14.0,11.0,-100.00,ESE,121,13.0,-999.0,87,-99.99,,,-99.99,,2013-02-06 14:22:00,
2013-02-06 08:32:00,15.0,12.0,-100.00,ESE,109,11.0,-999.0,87,-99.99,,,-99.99,,2013-02-06 14:32:00,
2013-02-06 08:42:00,15.0,12.0,-100.00,ESE,109,11.0,-999.0,87,-99.99,,,-99.99,,2013-02-06 14:42:00,
2013-02-06 08:52:00,15.0,12.0,-100.00,ESE,114,13.0,-999.0,87,-99.99,,,-99.99,,2013-02-06 14:52:00,
2013-02-06 09:01:00,15.0,12.0,-100.00,SE,125,13.0,-999.0,87,-99.99,,,-99.99,,2013-02-06 15:01:00,
2013-02-06 09:11:00,16.0,13.0,-100.00,ESE,115,8.0,-999.0,88,-99.99,,,-99.99,,2013-02-06 15:11:00,
2013-02-06 09:21:00,16.0,13.0,-100.00,SE,125,15.0,-999.0,88,-99.99,,,-99.99,,2013-02-06 15:21:00,
2013-02-06 09:31:00,15.0,12.0,-100.00,ESE,122,18.0,-999.0,87,-99.99,,,-99.99,,2013-02-06 15:31:00,
2013-02-06 09:42:00,15.0,12.0,-100.00,ESE,122,18.0,-999.0,87,-99.99,,,-99.99,,2013-02-06 15:42:00,
2013-02-06 09:52:00,16.0,13.0,-100.00,SE,131,13.0,-999.0,87,-99.99,,,-99.99,,2013-02-06 15:52:00,
2013-02-06 10:01:00,16.0,13.0,-100.00,SE,124,12.0,-999.0,86,-99.99,,,-99.99,,2013-02-06 16:01:00,
2013-02-06 10:11:00,17.0,13.0,-100.00,East,79,5.0,-999.0,85,-99.99,,,-99.99,,2013-02-06 16:11:00,
2013-02-06 10:21:00,17.0,13.0,-100.00,East,97,8.0,-999.0,85,-99.99,,,-99.99,,2013-02-06 16:21:00,
2013-02-06 10:32:00,17.0,13.0,-100.00,East,88,11.0,-999.0,84,-99.99,,,-99.99,,2013-02-06 16:32:00,
2013-02-06 10:42:00,17.0,13.0,-100.00,SE,125,8.0,-999.0,83,-99.99,,,-99.99,,2013-02-06 16:42:00,
2013-02-06 10:52:00,18.0,13.0,-100.00,ESE,106,7.0,-999.0,82,-99.99,,,-99.99,,2013-02-06 16:52:00,
2013-02-06 11:02:00,18.0,13.0,-100.00,ESE,106,7.0,-999.0,82,-99.99,,,-99.99,,2013-02-06 17:02:00,
2013-02-06 11:11:00,17.0,13.0,-100.00,ESE,109,5.0,-999.0,83,-99.99,,,-99.99,,2013-02-06 17:11:00,
2013-02-06 11:21:00,17.0,13.0,-100.00,ESE,110,9.0,-999.0,82,-99.99,,,-99.99,,2013-02-06 17:21:00,
2013-02-06 11:32:00,18.0,13.0,-100.00,ESE,108,7.0,-999.0,82,-99.99,,,-99.99,,2013-02-06 17:32:00,
2013-02-06 11:42:00,18.0,13.0,-100.00,ESE,110,10.0,-999.0,82,-99.99,,,-99.99,,2013-02-06 17:42:00,
2013-02-06 11:52:00,18.0,13.0,-100.00,ESE,118,12.0,-999.0,82,-99.99,,,-99.99,,2013-02-06 17:52:00,
2013-02-06 12:01:00,18.0,14.0,-100.00,ESE,116,12.0,-999.0,83,-99.99,,,-99.99,,2013-02-06 18:01:00,
2013-02-06 12:11:00,19.0,14.0,-100.00,SE,125,12.0,-999.0,81,-99.99,,,-99.99,,2013-02-06 18:11:00,
2013-02-06 12:23:00,20.0,15.0,-100.00,ESE,123,13.0,-999.0,81,-99.99,,,-99.99,,2013-02-06 18:23:00,
2013-02-06 12:32:00,21.0,15.0,-100.00,ESE,121,9.0,-999.0,79,-99.99,,,-99.99,,2013-02-06 18:32:00,
2013-02-06 12:42:00,22.0,16.0,-100.00,SE,128,9.0,-999.0,80,-99.99,,,-99.99,,2013-02-06 18:42:00,
2013-02-06 12:52:00,23.0,17.0,-100.00,SE,129,11.0,-999.0,78,-99.99,,,-99.99,,2013-02-06 18:52:00,
2013-02-06 13:01:00,23.0,17.0,-100.00,SE,132,11.0,-999.0,78,-99.99,,,-99.99,,2013-02-06 19:01:00,
2013-02-06 13:11:00,23.0,17.0,-100.00,ESE,118,14.0,-999.0,78,-99.99,,,-99.99,,2013-02-06 19:11:00,
2013-02-06 13:21:00,23.0,18.0,-100.00,ESE,121,15.0,-999.0,80,-99.99,,,-99.99,,2013-02-06 19:21:00,
2013-02-06 13:32:00,24.0,19.0,-100.00,ESE,118,14.0,-999.0,79,-99.99,,,-99.99,,2013-02-06 19:32:00,
2013-02-06 13:42:00,24.0,19.0,-100.00,SE,133,15.0,-999.0,79,-99.99,,,-99.99,,2013-02-06 19:42:00,
2013-02-06 13:52:00,24.0,19.0,-100.00,SE,140,11.0,-999.0,80,-99.99,,,-99.99,,2013-02-06 19:52:00,
2013-02-06 14:01:00,25.0,19.0,-100.00,SE,142,16.0,-999.0,80,-99.99,,,-99.99,,2013-02-06 20:01:00,
2013-02-06 14:11:00,25.0,20.0,-100.00,SE,128,11.0,-999.0,79,-99.99,,,-99.99,,2013-02-06 20:11:00,
2013-02-06 14:21:00,26.0,20.0,-100.00,SE,135,13.0,-999.0,80,-99.99,,,-99.99,,2013-02-06 20:21:00,
2013-02-06 14:32:00,26.0,21.0,-100.00,SE,138,15.0,-999.0,80,-99.99,,,-99.99,,2013-02-06 20:32:00,
2013-02-06 14:42:00,27.0,21.0,-100.00,SE,132,11.0,-999.0,79,-99.99,,,-99.99,,2013-02-06 20:42:00,
2013-02-06 14:52:00,26.0,21.0,-100.00,SE,132,13.0,-999.0,80,-99.99,,,-99.99,,2013-02-06 20:52:00,
2013-02-06 15:02:00,26.0,21.0,-100.00,SE,129,12.0,-999.0,80,-99.99,,,-99.99,,2013-02-06 21:02:00,
2013-02-06 15:11:00,26.0,21.0,-100.00,SE,133,8.0,-999.0,80,-99.99,,,-99.99,,2013-02-06 21:11:00,
2013-02-06 15:21:00,26.0,20.0,-100.00,ESE,113,10.0,-999.0,80,-99.99,,,-99.99,,2013-02-06 21:21:00,
2013-02-06 15:32:00,25.0,20.0,-100.00,ESE,117,9.0,-999.0,81,-99.99,,,-99.99,,2013-02-06 21:32:00,
2013-02-06 15:42:00,26.0,20.0,-100.00,ESE,112,7.0,-999.0,80,-99.99,,,-99.99,,2013-02-06 21:42:00,
2013-02-06 15:51:00,25.0,20.0,-100.00,East,101,6.0,-999.0,82,-99.99,,,-99.99,,2013-02-06 21:51:00,
2013-02-06 16:01:00,24.0,20.0,-100.00,East,83,8.0,-999.0,84,-99.99,,,-99.99,,2013-02-06 22:01:00,
2013-02-06 16:11:00,24.0,20.0,-100.00,East,84,9.0,-999.0,84,-99.99,,,-99.99,,2013-02-06 22:11:00,
2013-02-06 16:21:00,24.0,20.0,-100.00,ENE,72,6.0,-999.0,83,-99.99,,,-99.99,,2013-02-06 22:21:00,
2013-02-06 16:31:00,23.0,20.0,-100.00,East,85,8.0,-999.0,86,-99.99,,,-99.99,,2013-02-06 22:31:00,
2013-02-06 16:42:00,24.0,20.0,-100.00,ESE,110,4.0,-999.0,85,-99.99,,,-99.99,,2013-02-06 22:42:00,
2013-02-06 16:52:00,24.0,20.0,-100.00,ESE,112,5.0,-999.0,85,-99.99,,,-99.99,,2013-02-06 22:52:00,
2013-02-06 17:01:00,24.0,20.0,-100.00,East,95,5.0,-999.0,85,-99.99,,,-99.99,,2013-02-06 23:01:00,
2013-02-06 17:11:00,24.0,21.0,-100.00,East,89,2.0,-999.0,85,-99.99,,,-99.99,,2013-02-06 23:11:00,
2013-02-06 17:21:00,24.0,21.0,-100.00,ENE,78,5.0,-999.0,88,-99.99,,,-99.99,,2013-02-06 23:21:00,
2013-02-06 17:32:00,24.0,21.0,-100.00,ESE,120,5.0,-999.0,88,-99.99,,,-99.99,,2013-02-06 23:32:00,
2013-02-06 17:42:00,24.0,21.0,-100.00,ESE,114,4.0,-999.0,87,-99.99,,,-99.99,,2013-02-06 23:42:00,
2013-02-06 17:52:00,24.0,21.0,-100.00,East,99,5.0,-999.0,89,-99.99,,,-99.99,,2013-02-06 23:52:00,
2013-02-06 18:01:00,23.0,21.0,-100.00,East,88,7.0,-999.0,90,-99.99,,,-99.99,,2013-02-07 00:01:00,
2013-02-06 18:11:00,24.0,21.0,-100.00,ENE,63,4.0,-999.0,90,-99.99,,,-99.99,,2013-02-07 00:11:00,
2013-02-06 18:21:00,23.0,21.0,-100.00,East,79,4.0,-999.0,90,-99.99,,,-99.99,,2013-02-07 00:21:00,
2013-02-06 18:32:00,24.0,22.0,-100.00,East,88,7.0,-999.0,91,-99.99,,,-99.99,,2013-02-07 00:32:00,
2013-02-06 18:42:00,23.0,21.0,-100.00,East,82,9.0,-999.0,92,-99.99,,,-99.99,,2013-02-07 00:42:00,
2013-02-06 18:51:00,24.0,22.0,-100.00,East,95,6.0,-999.0,91,-99.99,,,-99.99,,2013-02-07 00:51:00,
2013-02-06 19:01:00,24.0,22.0,-100.00,ENE,77,7.0,-999.0,91,-99.99,,,-99.99,,2013-02-07 01:01:00,
2013-02-06 19:11:00,24.0,22.0,-100.00,ENE,72,7.0,-999.0,91,-99.99,,,-99.99,,2013-02-07 01:11:00,
2013-02-06 19:21:00,24.0,22.0,-100.00,NE,56,5.0,-999.0,92,-99.99,,,-99.99,,2013-02-07 01:21:00,
2013-02-06 19:32:00,24.0,22.0,-100.00,NE,36,3.0,-999.0,92,-99.99,,,-99.99,,2013-02-07 01:32:00,
2013-02-06 19:41:00,23.0,21.0,-100.00,NNW,334,6.0,-999.0,92,-99.99,,,-99.99,,2013-02-07 01:41:00,
2013-02-06 19:52:00,23.0,22.0,-100.00,North,4,8.0,-999.0,93,-99.99,,,-99.99,,2013-02-07 01:52:00,
2013-02-06 20:01:00,23.0,22.0,-100.00,North,4,8.0,-999.0,93,-99.99,,,-99.99,,2013-02-07 02:01:00,
2013-02-06 20:11:00,23.0,20.0,-100.00,NNE,26,9.0,-999.0,91,-99.99,,,-99.99,,2013-02-07 02:11:00,
2013-02-06 20:21:00,22.0,20.0,-100.00,NNE,26,8.0,-999.0,90,-99.99,,,-99.99,,2013-02-07 02:21:00,
2013-02-06 20:32:00,22.0,19.0,-100.00,NE,43,7.0,-999.0,89,-99.99,,,-99.99,,2013-02-07 02:32:00,
2013-02-06 20:41:00,22.0,19.0,-100.00,NE,43,7.0,-999.0,89,-99.99,,,-99.99,,2013-02-07 02:41:00,
2013-02-06 20:51:00,22.0,19.0,-100.00,NE,43,7.0,-999.0,89,-99.99,,,-99.99,,2013-02-07 02:51:00,
2013-02-06 21:02:00,21.0,18.0,-100.00,NNE,32,11.0,-999.0,89,-99.99,,,-99.99,,2013-02-07 03:02:00,
2013-02-06 21:11:00,21.0,18.0,-100.00,NE,35,10.0,-999.0,89,-99.99,,,-99.99,,2013-02-07 03:11:00,
2013-02-06 21:21:00,21.0,18.0,-100.00,NE,39,9.0,-999.0,89,-99.99,,,-99.99,,2013-02-07 03:21:00,
2013-02-06 21:31:00,21.0,17.0,-100.00,NE,47,9.0,-999.0,87,-99.99,,,-99.99,,2013-02-07 03:31:00,
2013-02-06 21:42:00,21.0,18.0,-100.00,NE,41,9.0,-999.0,88,-99.99,,,-99.99,,2013-02-07 03:42:00,
2013-02-06 21:52:00,21.0,18.0,-100.00,NNE,33,10.0,-999.0,88,-99.99,,,-99.99,,2013-02-07 03:52:00,
2013-02-06 22:01:00,21.0,17.0,-100.00,NE,36,9.0,-999.0,87,-99.99,,,-99.99,,2013-02-07 04:01:00,
2013-02-06 22:11:00,21.0,17.0,-100.00,NE,53,9.0,-999.0,86,-99.99,,,-99.99,,2013-02-07 04:11:00,
2013-02-06 22:22:00,21.0,17.0,-100.00,NE,51,8.0,-999.0,85,-99.99,,,-99.99,,2013-02-07 04:22:00,
2013-02-06 22:32:00,21.0,17.0,-100.00,NE,37,6.0,-999.0,85,-99.99,,,-99.99,,2013-02-07 04:32:00,
2013-02-06 22:41:00,21.0,18.0,-100.00,NE,35,6.0,-999.0,87,-99.99,,,-99.99,,2013-02-07 04:41:00,
2013-02-06 22:53:00,21.0,18.0,-100.00,NE,34,6.0,-999.0,87,-99.99,,,-99.99,,2013-02-07 04:53:00,
2013-02-06 23:02:00,21.0,18.0,-100.00,NNE,21,5.0,-999.0,86,-99.99,,,-99.99,,2013-02-07 05:02:00,
2013-02-06 23:11:00,21.0,18.0,-100.00,NNE,18,6.0,-999.0,86,-99.99,,,-99.99,,2013-02-07 05:11:00,
2013-02-06 23:21:00,21.0,18.0,-100.00,NNE,13,4.0,-999.0,87,-99.99,,,-99.99,,2013-02-07 05:21:00,
2013-02-06 23:32:00,21.0,18.0,-100.00,North,7,4.0,-999.0,88,-99.99,,,-99.99,,2013-02-07 05:32:00,
2013-02-06 23:42:00,21.0,18.0,-100.00,North,6,4.0,-999.0,89,-99.99,,,-99.99,,2013-02-07 05:42:00,
2013-02-06 23:52:00,21.0,19.0,-100.00,North,7,6.0,-999.0,89,-99.99,,,-99.99,,2013-02-07 05:52:00,